Tiempo cada hora Gohana

Hoy, 28 Enero, Jueves

Tiempo Temperatura Precipitaciones Viento Presión Humedad
00:00 +9°C° 0 mm 0 mps 741 mmHg 41%
01:00 +8°C° 0 mm 0 mps 741 mmHg 41%
02:00 +9°C° 0 mm 1 mps 741 mmHg 42%
03:00 +8°C° 0 mm 0 mps 741 mmHg 43%
04:00 +7°C° 0 mm 0 mps 741 mmHg 44%
05:00 +6°C° 0 mm 0 mps 741 mmHg 47%
06:00 +8°C° 0 mm 0 mps 741 mmHg 47%
07:00 +9°C° 0 mm 0 mps 742 mmHg 47%
08:00 +10°C° 0 mm 0 mps 743 mmHg 47%
09:00 +13°C° 0 mm 0 mps 743 mmHg 41%
10:00 +15°C° 0 mm 0 mps 743 mmHg 34%
11:00 +20°C° 0 mm 1 mps 744 mmHg 28%
12:00 +21°C° 0 mm 1 mps 743 mmHg 25%
13:00 +21°C° 0 mm 2 mps 742 mmHg 22%
14:00 +23°C° 0 mm 2 mps 742 mmHg 19%
15:00 +20°C° 0 mm 2 mps 741 mmHg 24%
16:00 +18°C° 0 mm 2 mps 741 mmHg 28%
17:00 +18°C° 0 mm 1 mps 741 mmHg 32%
18:00 +15°C° 0 mm 1 mps 741 mmHg 34%
19:00 +14°C° 0 mm 1 mps 741 mmHg 35%
20:00 +12°C° 0 mm 1 mps 742 mmHg 37%
21:00 +12°C° 0 mm 1 mps 742 mmHg 37%
22:00 +11°C° 0 mm 1 mps 742 mmHg 37%
23:00 +10°C° 0 mm 0 mps 742 mmHg 37%

Mañana, 29 Enero, Viernes

Tiempo Temperatura Precipitaciones Viento Presión Humedad
00:00 +10°C° 0 mm 1 mps 742 mmHg 37%
01:00 +10°C° 0 mm 1 mps 741 mmHg 38%
02:00 +10°C° 0 mm 1 mps 741 mmHg 38%
03:00 +9°C° 0 mm 1 mps 741 mmHg 39%
04:00 +9°C° 0 mm 1 mps 741 mmHg 40%
05:00 +8°C° 0 mm 1 mps 741 mmHg 41%
06:00 +9°C° 0 mm 1 mps 742 mmHg 41%
07:00 +10°C° 0 mm 1 mps 742 mmHg 42%
08:00 +11°C° 0 mm 1 mps 743 mmHg 43%
09:00 +14°C° 0 mm 1 mps 743 mmHg 37%
10:00 +16°C° 0 mm 2 mps 743 mmHg 32%
11:00 +19°C° 0 mm 2 mps 743 mmHg 26%
12:00 +20°C° 0 mm 3 mps 743 mmHg 24%
13:00 +21°C° 0 mm 3 mps 742 mmHg 22%
14:00 +22°C° 0 mm 4 mps 742 mmHg 20%
15:00 +21°C° 0 mm 3 mps 741 mmHg 25%
16:00 +19°C° 0 mm 3 mps 741 mmHg 29%
17:00 +17°C° 0 mm 2 mps 740 mmHg 34%
18:00 +16°C° 0 mm 2 mps 741 mmHg 34%
19:00 +14°C° 0 mm 2 mps 741 mmHg 35%
20:00 +13°C° 0 mm 2 mps 742 mmHg 35%
21:00 +12°C° 0 mm 2 mps 742 mmHg 37%
22:00 +10°C° 0 mm 2 mps 741 mmHg 39%
23:00 +9°C° 0 mm 2 mps 741 mmHg 40%

Pasado mañana, 30 Enero, Sábado

Tiempo Temperatura Precipitaciones Viento Presión Humedad
00:00 +9°C° 0 mm 2 mps 741 mmHg 42%
01:00 +9°C° 0 mm 2 mps 741 mmHg 44%
02:00 +8°C° 0 mm 2 mps 741 mmHg 45%
03:00 +8°C° 0 mm 2 mps 740 mmHg 46%
04:00 +7°C° 0 mm 2 mps 740 mmHg 46%
05:00 +7°C° 0 mm 2 mps 740 mmHg 47%
06:00 +7°C° 0 mm 2 mps 741 mmHg 45%
07:00 +8°C° 0 mm 2 mps 741 mmHg 43%
08:00 +9°C° 0 mm 2 mps 742 mmHg 42%
09:00 +12°C° 0 mm 3 mps 742 mmHg 35%
10:00 +16°C° 0 mm 3 mps 742 mmHg 29%
11:00 +20°C° 0 mm 4 mps 742 mmHg 22%
12:00 +21°C° 0 mm 4 mps 742 mmHg 20%
13:00 +22°C° 0 mm 4 mps 741 mmHg 19%
14:00 +23°C° 0 mm 5 mps 741 mmHg 17%
15:00 +21°C° 0 mm 4 mps 740 mmHg 21%
16:00 +19°C° 0 mm 3 mps 740 mmHg 25%
17:00 +18°C° 0 mm 2 mps 740 mmHg 29%
18:00 +16°C° 0 mm 2 mps 740 mmHg 29%
19:00 +14°C° 0 mm 1 mps 741 mmHg 28%
20:00 +13°C° 0 mm 1 mps 741 mmHg 28%
21:00 +12°C° 0 mm 1 mps 741 mmHg 28%
22:00 +11°C° 0 mm 1 mps 742 mmHg 29%
23:00 +11°C° 0 mm 1 mps 742 mmHg 29%

31 Enero, Domingo

Tiempo Temperatura Precipitaciones Viento Presión Humedad
00:00 +10°C° 0 mm 1 mps 742 mmHg 29%
01:00 +10°C° 0 mm 1 mps 742 mmHg 29%
02:00 +9°C° 0 mm 1 mps 741 mmHg 29%
03:00 +9°C° 0 mm 1 mps 741 mmHg 30%
04:00 +9°C° 0 mm 1 mps 741 mmHg 31%
05:00 +8°C° 0 mm 1 mps 740 mmHg 33%
06:00 +9°C° 0 mm 1 mps 741 mmHg 34%
07:00 +10°C° 0 mm 1 mps 742 mmHg 36%
08:00 +11°C° 0 mm 1 mps 742 mmHg 38%
09:00 +14°C° 0 mm 1 mps 743 mmHg 33%
10:00 +17°C° 0 mm 2 mps 743 mmHg 27%
11:00 +20°C° 0 mm 2 mps 743 mmHg 22%
12:00 +21°C° 0 mm 2 mps 743 mmHg 20%
13:00 +24°C° 0 mm 2 mps 742 mmHg 18%
14:00 +25°C° 0 mm 3 mps 742 mmHg 16%
15:00 +23°C° 0 mm 2 mps 742 mmHg 20%
16:00 +20°C° 0 mm 2 mps 742 mmHg 24%
17:00 +19°C° 0 mm 2 mps 741 mmHg 29%
18:00 +18°C° 0 mm 1 mps 742 mmHg 30%
19:00 +15°C° 0 mm 1 mps 742 mmHg 31%
20:00 +12°C° 0 mm 0 mps 743 mmHg 32%
21:00 +12°C° 0 mm 0 mps 743 mmHg 31%
22:00 +12°C° 0 mm 0 mps 743 mmHg 31%
23:00 +11°C° 0 mm 0 mps 743 mmHg 31%

1 Febrero, Lunes

Tiempo Temperatura Precipitaciones Viento Presión Humedad
00:00 +12°C° 0 mm 1 mps 743 mmHg 31%
01:00 +12°C° 0 mm 1 mps 743 mmHg 31%
02:00 +11°C° 0 mm 1 mps 743 mmHg 30%
03:00 +11°C° 0 mm 1 mps 742 mmHg 31%
04:00 +11°C° 0 mm 1 mps 742 mmHg 31%
05:00 +10°C° 0 mm 1 mps 742 mmHg 32%
06:00 +11°C° 0 mm 1 mps 742 mmHg 33%
07:00 +12°C° 0 mm 1 mps 743 mmHg 35%
08:00 +13°C° 0 mm 1 mps 743 mmHg 36%
09:00 +16°C° 0 mm 2 mps 744 mmHg 31%
10:00 +19°C° 0 mm 2 mps 744 mmHg 26%
11:00 +23°C° 0 mm 2 mps 744 mmHg 20%
12:00 +24°C° 0 mm 3 mps 743 mmHg 20%
13:00 +26°C° 0 mm 4 mps 743 mmHg 19%
14:00 +27°C° 0 mm 4 mps 742 mmHg 18%
15:00 +25°C° 0 mm 4 mps 742 mmHg 22%
16:00 +22°C° 0 mm 3 mps 741 mmHg 26%
17:00 +21°C° 0 mm 2 mps 741 mmHg 30%
18:00 +19°C° 0 mm 2 mps 741 mmHg 29%
19:00 +18°C° 0 mm 2 mps 742 mmHg 29%
20:00 +16°C° 0 mm 2 mps 742 mmHg 28%
21:00 +16°C° 0 mm 2 mps 742 mmHg 29%
22:00 +15°C° 0 mm 2 mps 742 mmHg 30%
23:00 +14°C° 0 mm 2 mps 742 mmHg 31%

2 Febrero, Martes

Tiempo Temperatura Precipitaciones Viento Presión Humedad
00:00 +14°C° 0 mm 2 mps 742 mmHg 32%
01:00 +13°C° 0 mm 2 mps 741 mmHg 32%
02:00 +13°C° 0 mm 1 mps 741 mmHg 33%
03:00 +12°C° 0 mm 1 mps 741 mmHg 34%
04:00 +12°C° 0 mm 1 mps 741 mmHg 35%
05:00 +11°C° 0 mm 1 mps 741 mmHg 36%
06:00 +12°C° 0 mm 1 mps 741 mmHg 38%
07:00 +13°C° 0 mm 1 mps 742 mmHg 39%
08:00 +14°C° 0 mm 1 mps 742 mmHg 40%
09:00 +16°C° 0 mm 0 mps 742 mmHg 35%
10:00 +19°C° 0 mm 0 mps 742 mmHg 30%
11:00 +22°C° 0 mm 0 mps 743 mmHg 25%
12:00 +23°C° 0 mm 0 mps 742 mmHg 23%
13:00 +26°C° 0 mm 1 mps 741 mmHg 21%
14:00 +28°C° 0 mm 1 mps 741 mmHg 18%
15:00 +26°C° 0 mm 1 mps 740 mmHg 22%
16:00 +24°C° 0 mm 1 mps 740 mmHg 26%
17:00 +23°C° 0 mm 1 mps 740 mmHg 30%
18:00 +21°C° 0 mm 1 mps 740 mmHg 32%
19:00 +19°C° 0 mm 1 mps 740 mmHg 34%
20:00 +18°C° 0 mm 1 mps 741 mmHg 36%
21:00 +16°C° 0 mm 1 mps 741 mmHg 36%
22:00 +16°C° 0 mm 2 mps 741 mmHg 36%
23:00 +16°C° 0 mm 3 mps 740 mmHg 36%
Mostrar más

Necesitamos Su Consentimiento

Meteoprog y nuestros Proveedores de Servicios pueden almacenar y acceder a sus datos personales como cookies, identificadores de dispositivo u otras tecnologías similares de su dispositivo y procesar dichos datos para personalizar contenido y anuncios, además de ofrecer funciones de redes sociales y analizar el tráfico.

  • Almacenar y/o acceder a información en su dispositivo

    Se puede almacenar o acceder a cookies, identificadores de dispositivo u otra información de su dispositivo para los fines anteriormente indicados.

  • Anuncios y contenido personalizados, medición de anuncios y contenido, percepciones del público, y desarrollo de productos

    Los anuncios y el contenido pueden personalizarse en base a su perfil. Se pueden añadir más datos para personalizar mejor los anuncios y contenidos. Se puede medir el rendimiento de los anuncios y contenidos. Se puede obtener la percepción sobre el público que ha visto los anuncios y contenidos. Dichos datos pueden usarse para desarrollar o mejorar la experiencia del usuario, sistemas y software.

Al hacer clic en ‘Estoy De Acuerdo’ usted permitirá el uso de las cookies, identificadores de dispositivo, balizas web u otras tecnologías similares indicadas. Su configuración puede cambiarse desde el navegador de su dispositivo.

Para ciertos fines, los intereses legítimos pueden ser considerados por encima del consentimiento. Puede leer más sobre ello en nuestra Política de Privacidad y Cookies.